Вернуться в каталог

ONEWEB-0446

АктивенСвязьPO
NORAD 51640·PAYLOAD·🇬🇧 United Kingdom

Запущен Feb 10, 2022 с Guiana Space Centre

Loading…

Ближайшие Пролёты (ближайшие 24 часа)

TLE

СвежийSource: CelesTrak SupGP

Эпоха: Sep 14, 2026, 12:28 UTC

1 51640C 22012U   26257.51959907 -.00003436  00000+0 -98564-2 0  2578
2 51640  87.8892  18.4952 0001458 110.2836 297.9303 13.10369762    10

Отслеживайте ONEWEB-0446 в реальном времени с AllMySat

Download on the App Store